Location: ????
(55.5675°N, 37.6272°E)
Time: 02:25:21
(UTC+00:00)

Okean 1 Rocket - Pass Details

Date: 14 April 2026
Orbit: 601 x 625 km, 82.5° (Epoch: 20 May)

Event Time Altitude Azimuth Distance (km) Brightness Sun altitude
Exits shadow 21:53:48 50° 287° (WNW) 781 3.5 -24.6°
Maximum altitude 21:53:48 50° 288° (WNW) 781 3.5 -24.6°
Drops below altitude 10° 21:58:03 10° 4° (N) 1,970 6.7 -24.5°
Sets 22:00:20 0° 10° (N) 2,883 7.9 -24.5°
